Content
SEND FEEDBACK

Daily
Averages
Monthly
Summary
Philippines

BOOT, PHILIPPINES


Home > Asia > Philippines
Elevation: 36 feet     Latitude: 14 04N     Longitude: 121 03E

WEATHER
 
SELECT A DAY
Number of Records: 179,175;   Date Range: 7/1/96 - 12/27/14
 
SHARE

PRINT THIS DATA

[ ← Previous Day ]
WEATHER ALMANAC - FEBRUARY 11, 2013
[ Next Day → ]
[ °C ]   °F
Weather ElementAverageHighLow
Temperature81.4 °F87.8 °F (4:00 pm)71.6 °F (6:00 am)
Dewpoint69.2 °F71.6 °F (2:00 am)66.2 °F (10:00 am)
Humidity65.3 %88 % (6:00 am)43 % (11:00 am)
Barometer29.90 in29.96 in (11:00 pm)29.86 in (2:00 pm)
Wind Speed6.5 mph11.5 mph (1:00 pm)
Weather ElementAverage
Visibility6.1 mi
Wind DirectionESE (119.4 °)

Weather ElementTotal
Precipitation---
Cooling Degree Days14.7 (Base 65)
Growing Degree Days29.7 (Base 50)
Averaged from 31 records on February 11, 2013
WEATHER CONDITIONS BREAKOUT
WIND DIRECTION BREAKOUT
WEATHER BY HOUR - FEBRUARY 11, 2013
[ °C ]   °F
Local TimeTemperatureDewpointHumidityBarometerVisibilityWind DirectionWind SpeedGust SpeedPrecipitationEventsConditions
1:00 AM78.8 °F69.8 °F74 %29.92 in6.2 miESE (120°)5.8 mphPartly Cloudy
2:00 AM78.0 °F71.0 °F72 %29.92 in6.0 miESE (110°)4.5 mphScattered Clouds
2:00 AM77.0 °F71.6 °F83 %29.92 in6.2 miESE (110°)5.8 mphPartly Cloudy
3:00 AM77.0 °F71.6 °F83 %29.89 in6.2 miEast (80°)5.8 mphPartly Cloudy
4:00 AM75.2 °F69.8 °F83 %29.89 in6.2 miEast (80°)5.8 mphPartly Cloudy
5:00 AM76.0 °F69.0 °F73 %29.91 in6.0 miNE (40°)4.5 mphScattered Clouds
5:00 AM75.2 °F69.8 °F83 %29.89 in6.2 miEast (90°)4.6 mphPartly Cloudy
6:00 AM71.6 °F68.0 °F88 %29.89 in6.2 miENE (70°)3.5 mphPartly Cloudy
7:00 AM75.2 °F68.0 °F78 %29.92 in6.2 miEast (100°)2.3 mphPartly Cloudy
8:00 AM80.0 °F69.0 °F61 %29.94 in6.0 miESE (120°)4.5 mphPartly Cloudy
8:00 AM80.6 °F69.8 °F70 %29.95 in6.2 miVariable4.6 mphPartly Cloudy
9:00 AM82.4 °F69.8 °F66 %29.95 in6.2 miEast (100°)8.1 mphPartly Cloudy
10:00 AM84.2 °F66.2 °F55 %29.95 in6.2 miEast (100°)6.9 mphPartly Cloudy
11:00 AM86.0 °F67.0 °F43 %29.94 in6.0 miENE (70°)6.7 mphPartly Cloudy
11:00 AM86.0 °F66.2 °F51 %29.92 in6.2 miEast (80°)5.8 mphPartly Cloudy
12:00 PM84.2 °F69.8 °F62 %29.89 in6.2 miWNW (300°)10.4 mphPartly Cloudy
1:00 PM86.0 °F69.8 °F58 %29.89 in6.2 miWNW (290°)11.5 mphPartly Cloudy
2:00 PM84.0 °F71.0 °F58 %29.88 in6.0 miNW (310°)6.7 mphPartly Cloudy
2:00 PM84.2 °F71.6 °F66 %29.86 in6.2 miNW (310°)5.8 mphPartly Cloudy
3:00 PM86.0 °F71.6 °F62 %29.86 in6.2 miESE (120°)10.4 mphMostly Cloudy
4:00 PM87.8 °F71.6 °F58 %29.86 in6.2 miESE (120°)11.5 mphPartly Cloudy
5:00 PM87.0 °F68.0 °F44 %29.87 in6.0 miEast (80°)8.9 mphHaze
5:00 PM87.8 °F68.0 °F52 %29.86 inEast (80°)10.4 mphPartly Cloudy
6:00 PM86.0 °F68.0 °F55 %29.86 in6.2 miEast (90°)8.1 mphPartly Cloudy
7:00 PM82.4 °F68.0 °F62 %29.86 in6.2 miESE (110°)5.8 mphPartly Cloudy
8:00 PM82.0 °F68.0 °F54 %29.90 in6.0 miEast (80°)6.7 mphHaze
8:00 PM82.4 °F68.0 °F62 %29.89 in6.2 miEast (80°)8.1 mphPartly Cloudy
9:00 PM80.6 °F69.8 °F70 %29.92 in6.2 miESE (110°)6.9 mphPartly Cloudy
10:00 PM80.6 °F66.2 °F61 %29.92 in6.2 miEast (90°)6.9 mphPartly Cloudy
11:00 PM80.0 °F69.0 °F62 %29.96 in6.0 miSE (140°)2.2 mphHaze
11:00 PM78.8 °F69.8 °F74 %29.92 in6.2 miESE (120°)3.5 mphScattered Clouds
Hourly data recorded from RPLL, located miles away from Boot, Philippines







STORIES FROM OUR PARTNERS